| time (UTC) | temp F | wind direction | speed knots | gust knots | rain 1hr in | rain 24hr in | rain mn in | humidity % | barometer mb |
| 20260510144813 | 59 | 182 | 3.5 | 5.2 | 0.00 | 0.59 | 0.00 | 87 | 1015.1 |
| 20260510143815 | 58 | 202 | 0.0 | 0.0 | 0.00 | 0.60 | 0.00 | 90 | 1015.1 |
| 20260510141712 | 56 | 154 | 1.7 | 3.5 | 0.00 | 0.62 | 0.00 | 90 | 1015.4 |
| 20260510140714 | 55 | 288 | 1.7 | 3.5 | 0.00 | 0.63 | 0.00 | 90 | 1015.5 |
| 20260510140613 | 55 | 245 | 1.7 | 3.5 | 0.00 | 0.63 | 0.00 | 89 | 1015.5 |
| 20260510135629 | 54 | 250 | 0.9 | 1.7 | 0.00 | 0.63 | 0.00 | 89 | 1015.5 |
| 20260510134713 | 53 | 275 | 1.7 | 2.6 | 0.00 | 0.64 | 0.00 | 89 | 1015.6 |
| 20260510133714 | 53 | 157 | 0.0 | 0.9 | 0.00 | 0.65 | 0.00 | 89 | 1015.5 |
| 20260510132728 | 53 | 291 | 0.0 | 0.9 | 0.00 | 0.65 | 0.00 | 87 | 1015.5 |
| 20260510125713 | 51 | 225 | 0.0 | 0.0 | 0.00 | 0.66 | 0.00 | 88 | 1015.4 |
| 20260510125612 | 51 | 225 | 0.0 | 0.0 | 0.00 | 0.66 | 0.00 | 89 | 1015.5 |
| 20260510123612 | 51 | 247 | 0.0 | 0.0 | 0.00 | 0.67 | 0.00 | 89 | 1015.4 |
| 20260510122711 | 50 | 149 | 0.0 | 2.6 | 0.00 | 0.68 | 0.00 | 89 | 1015.5 |
| 20260510121714 | 50 | 176 | 1.7 | 3.5 | 0.00 | 0.68 | 0.00 | 89 | 1015.5 |
| 20260510115812 | 50 | 247 | 0.0 | 0.0 | 0.00 | 0.68 | 0.00 | 88 | 1015.7 |
| 20260510113914 | 49 | 202 | 0.9 | 1.7 | 0.00 | 0.68 | 0.00 | 88 | 1015.6 |
| 20260510112013 | 49 | 247 | 0.9 | 1.7 | 0.00 | 0.68 | 0.00 | 89 | 1015.5 |
| 20260510111914 | 49 | 256 | 0.9 | 1.7 | 0.00 | 0.68 | 0.00 | 88 | 1015.5 |
| 20260510110915 | 48 | 202 | 0.9 | 1.7 | 0.00 | 0.68 | 0.00 | 89 | 1015.1 |
| 20260510110829 | 48 | 243 | 0.0 | 0.0 | 0.00 | 0.68 | 0.00 | 89 | 1015.1 |
| 20260510110711 | 48 | 247 | 0.0 | 0.9 | 0.00 | 0.68 | 0.00 | 89 | 1015.1 |
| 20260510105712 | 48 | 157 | 0.0 | 0.0 | 0.00 | 0.68 | 0.00 | 89 | 1014.8 |
| 20260510103714 | 46 | 22 | 0.0 | 0.0 | 0.00 | 0.68 | 0.00 | 89 | 1014.7 |
| 20260510100827 | 46 | 270 | 0.0 | 0.0 | 0.00 | 0.68 | 0.00 | 88 | 1014.4 |
| 20260510095815 | 46 | 180 | 0.0 | 0.0 | 0.00 | 0.68 | 0.00 | 89 | 1013.9 |
| 20260510095714 | 46 | 180 | 0.0 | 0.0 | 0.00 | 0.68 | 0.00 | 89 | 1013.9 |
| 20260510094812 | 46 | 270 | 0.0 | 0.0 | 0.00 | 0.68 | 0.00 | 88 | 1013.9 |
| 20260510094729 | 46 | 270 | 0.0 | 0.0 | 0.00 | 0.68 | 0.00 | 88 | 1013.9 |
| 20260510093715 | 46 | 157 | 0.0 | 0.0 | 0.00 | 0.68 | 0.00 | 89 | 1013.9 |
| 20260510092715 | 46 | 247 | 0.9 | 0.9 | 0.00 | 0.68 | 0.00 | 89 | 1014.2 |
| 20260510085714 | 46 | 337 | 0.0 | 0.0 | 0.00 | 0.68 | 0.00 | 88 | 1014.2 |
| 20260510083714 | 46 | 337 | 0.0 | 0.0 | 0.00 | 0.68 | 0.00 | 89 | 1014.4 |
| 20260510082713 | 46 | 337 | 0.0 | 0.0 | 0.00 | 0.68 | 0.00 | 88 | 1014.3 |
| 20260510081614 | 46 | 337 | 0.0 | 0.0 | 0.00 | 0.68 | 0.00 | 88 | 1014.1 |
| 20260510075716 | 46 | 337 | 0.0 | 0.0 | 0.00 | 0.68 | 0.00 | 89 | 1014.4 |
| 20260510074712 | 46 | 337 | 0.0 | 0.0 | 0.00 | 0.68 | 0.00 | 89 | 1014.2 |
| 20260510073713 | 46 | 337 | 0.0 | 0.0 | 0.00 | 0.68 | 0.00 | 89 | 1014.1 |
| 20260510072713 | 46 | 337 | 0.0 | 0.0 | 0.00 | 0.68 | 0.00 | 89 | 1014.2 |
| 20260510071812 | 46 | 337 | 0.0 | 0.0 | 0.00 | 0.68 | 0.00 | 89 | 1014.1 |
| 20260510070814 | 46 | 337 | 0.0 | 0.0 | 0.00 | 0.68 | 0.00 | 89 | 1014.0 |
| 20260510070715 | 46 | 337 | 0.0 | 0.0 | 0.00 | 0.68 | 0.00 | 88 | 1014.1 |
| 20260510065714 | 46 | 337 | 0.0 | 0.0 | 0.00 | 0.68 | 0.00 | 88 | 1014.1 |
| 20260510064731 | 46 | 337 | 0.0 | 0.0 | 0.00 | 0.68 | 0.00 | 89 | 1014.1 |
| 20260510063714 | 45 | 337 | 0.0 | 0.0 | 0.00 | 0.68 | 0.00 | 88 | 1014.4 |
| 20260510062713 | 45 | 337 | 0.0 | 0.0 | 0.00 | 0.68 | 0.00 | 88 | 1014.3 |
| 20260510061713 | 45 | 337 | 0.0 | 0.0 | 0.00 | 0.68 | 0.00 | 88 | 1014.3 |
| 20260510060713 | 46 | 337 | 0.0 | 0.0 | 0.00 | 0.68 | 0.00 | 88 | 1014.2 |
| 20260510055712 | 45 | 337 | 0.0 | 0.0 | 0.00 | 0.68 | 0.00 | 89 | 1014.4 |
| 20260510054712 | 45 | 337 | 0.0 | 0.0 | 0.00 | 0.68 | 0.00 | 88 | 1014.3 |
| 20260510051713 | 45 | 311 | 0.0 | 2.6 | 0.00 | 0.68 | 0.00 | 89 | 1014.4 |
| 20260510051612 | 45 | 337 | 0.0 | 0.0 | 0.00 | 0.68 | 0.00 | 89 | 1014.4 |
| 20260510050613 | 45 | 337 | 0.0 | 0.9 | 0.00 | 0.68 | 0.00 | 89 | 1014.4 |
| 20260510045611 | 45 | 180 | 0.9 | 0.9 | 0.00 | 0.68 | 0.00 | 89 | 1014.5 |
| 20260510044613 | 45 | 315 | 0.9 | 1.7 | 0.00 | 0.68 | 0.00 | 89 | 1014.6 |
| 20260510042711 | 45 | 254 | 0.0 | 0.9 | 0.00 | 0.68 | 0.00 | 90 | 1014.9 |
| 20260510042612 | 45 | 282 | 0.0 | 0.9 | 0.00 | 0.68 | 0.00 | 90 | 1014.8 |
| 20260510041613 | 45 | 337 | 0.0 | 0.0 | 0.00 | 0.68 | 0.00 | 90 | 1014.7 |
| 20260510040712 | 45 | 337 | 0.0 | 0.0 | 0.00 | 0.68 | 0.00 | 90 | 1014.7 |
| 20260510040614 | 45 | 337 | 0.0 | 0.0 | 0.00 | 0.68 | 0.00 | 89 | 1014.7 |
| 20260510035616 | 45 | 337 | 0.0 | 0.0 | 0.00 | 0.68 | 0.68 | 90 | 1014.8 |
| 20260510033620 | 45 | 337 | 0.0 | 0.0 | 0.00 | 0.68 | 0.68 | 89 | 1014.6 |
| 20260510032716 | 45 | 337 | 0.0 | 0.0 | 0.00 | 0.68 | 0.68 | 90 | 1014.8 |
| 20260510031718 | 45 | 337 | 0.0 | 0.0 | 0.00 | 0.68 | 0.68 | 90 | 1015.0 |
| 20260510030816 | 45 | 337 | 0.0 | 0.0 | 0.00 | 0.68 | 0.68 | 90 | 1015.0 |
| 20260510025817 | 45 | 337 | 0.0 | 0.0 | 0.00 | 0.68 | 0.68 | 90 | 1015.2 |
| 20260510024818 | 45 | 337 | 1.7 | 2.6 | 0.00 | 0.68 | 0.68 | 90 | 1015.3 |
| 20260510023833 | 45 | 337 | 0.0 | 0.0 | 0.00 | 0.68 | 0.68 | 90 | 1015.3 |
| 20260510022819 | 45 | 337 | 0.0 | 0.0 | 0.00 | 0.68 | 0.68 | 89 | 1015.3 |
| 20260510022734 | 45 | 337 | 0.0 | 0.0 | 0.00 | 0.68 | 0.68 | 90 | 1015.3 |
| 20260510021717 | 45 | 337 | 0.0 | 0.0 | 0.00 | 0.68 | 0.68 | 89 | 1015.4 |
| 20260510021618 | 45 | 337 | 0.0 | 0.0 | 0.00 | 0.68 | 0.68 | 90 | 1015.5 |
| 20260510015617 | 45 | 180 | 0.0 | 0.0 | 0.00 | 0.68 | 0.68 | 90 | 1015.4 |
| 20260510014619 | 45 | 180 | 0.0 | 0.0 | 0.00 | 0.68 | 0.68 | 90 | 1015.5 |
| 20260510013632 | 45 | 180 | 0.9 | 0.9 | 0.00 | 0.68 | 0.68 | 90 | 1015.5 |
| 20260510012619 | 45 | 315 | 0.0 | 0.0 | 0.00 | 0.68 | 0.68 | 90 | 1015.7 |
| 20260510010720 | 45 | 315 | 0.0 | 0.0 | 0.00 | 0.68 | 0.68 | 90 | 1015.4 |
| 20260510005717 | 45 | 157 | 0.0 | 0.0 | 0.00 | 0.68 | 0.68 | 89 | 1015.1 |
| 20260510004718 | 45 | 157 | 0.0 | 0.0 | 0.00 | 0.68 | 0.68 | 90 | 1015.0 |
| 20260510004618 | 45 | 157 | 0.0 | 0.0 | 0.00 | 0.68 | 0.68 | 89 | 1015.1 |
| 20260510003619 | 45 | 157 | 0.0 | 0.0 | 0.00 | 0.68 | 0.68 | 90 | 1015.1 |
| 20260510002619 | 45 | 157 | 0.0 | 0.0 | 0.00 | 0.68 | 0.68 | 90 | 1015.0 |
| 20260510000536 | 45 | 157 | 0.0 | 0.9 | 0.00 | 0.68 | 0.68 | 90 | 1015.0 |
| 20260509235416 | 45 | 180 | 0.0 | 0.0 | 0.00 | 0.68 | 0.68 | 90 | 1014.9 |
| 20260509234516 | 45 | 180 | 0.0 | 0.0 | 0.01 | 0.68 | 0.68 | 89 | 1014.9 |
| 20260509233518 | 45 | 225 | 0.0 | 0.0 | 0.01 | 0.68 | 0.68 | 90 | 1014.8 |
| 20260509232617 | 45 | 225 | 0.0 | 0.0 | 0.01 | 0.68 | 0.68 | 89 | 1014.8 |
| 20260509232518 | 45 | 225 | 0.0 | 0.0 | 0.01 | 0.68 | 0.68 | 90 | 1014.8 |
| 20260509231518 | 45 | 286 | 0.0 | 0.9 | 0.01 | 0.68 | 0.68 | 89 | 1014.8 |
| 20260509230616 | 45 | 292 | 0.0 | 0.0 | 0.01 | 0.68 | 0.68 | 89 | 1014.6 |
| 20260509225633 | 45 | 292 | 0.0 | 0.0 | 0.01 | 0.68 | 0.68 | 89 | 1014.7 |
| 20260509223817 | 44 | 180 | 0.0 | 0.0 | 0.00 | 0.67 | 0.67 | 89 | 1014.8 |
| 20260509223719 | 44 | 180 | 0.0 | 0.0 | 0.00 | 0.67 | 0.67 | 90 | 1014.8 |
| 20260509222718 | 44 | 180 | 0.0 | 0.9 | 0.01 | 0.67 | 0.67 | 90 | 1014.7 |
| 20260509220716 | 44 | 315 | 0.0 | 0.9 | 0.04 | 0.67 | 0.67 | 90 | 1014.8 |
| 20260509215718 | 44 | 315 | 0.0 | 0.0 | 0.06 | 0.67 | 0.67 | 89 | 1015.0 |
| 20260509215619 | 44 | 315 | 0.0 | 0.0 | 0.06 | 0.67 | 0.67 | 90 | 1015.0 |
| 20260509214519 | 44 | 315 | 0.0 | 0.0 | 0.08 | 0.67 | 0.67 | 89 | 1015.0 |
| 20260509213518 | 44 | 270 | 0.0 | 0.0 | 0.10 | 0.67 | 0.67 | 90 | 1015.4 |
| 20260509212518 | 44 | 270 | 0.9 | 1.7 | 0.11 | 0.66 | 0.65 | 90 | 1015.5 |
| 20260509211517 | 44 | 270 | 0.9 | 0.9 | 0.12 | 0.65 | 0.64 | 89 | 1015.5 |
| 20260509211418 | 44 | 270 | 1.7 | 1.7 | 0.11 | 0.64 | 0.64 | 89 | 1015.5 |
| 20260509205417 | 44 | 126 | 0.0 | 0.0 | 0.10 | 0.60 | 0.60 | 90 | 1015.6 |
| 20260509205318 | 44 | 112 | 0.0 | 0.0 | 0.10 | 0.60 | 0.60 | 89 | 1015.6 |
| 20260509204318 | 44 | 112 | 0.0 | 0.0 | 0.09 | 0.57 | 0.57 | 89 | 1015.6 |
| 20260509203317 | 44 | 180 | 0.0 | 0.0 | 0.09 | 0.56 | 0.56 | 91 | 1015.7 |
| 20260509202416 | 44 | 180 | 0.0 | 0.0 | 0.09 | 0.55 | 0.54 | 91 | 1015.7 |
| 20260509202317 | 44 | 180 | 0.0 | 0.0 | 0.08 | 0.54 | 0.54 | 91 | 1015.6 |
| 20260509201318 | 44 | 337 | 0.0 | 0.0 | 0.08 | 0.53 | 0.53 | 91 | 1015.9 |
| 20260509201216 | 44 | 337 | 0.0 | 0.0 | 0.08 | 0.53 | 0.53 | 90 | 1015.8 |
| 20260509193218 | 43 | 157 | 0.0 | 0.0 | 0.07 | 0.47 | 0.47 | 91 | 1015.6 |
| 20260509192317 | 43 | 157 | 0.0 | 0.0 | 0.07 | 0.46 | 0.46 | 90 | 1015.8 |
| 20260509191216 | 43 | 157 | 0.0 | 0.9 | 0.08 | 0.45 | 0.44 | 91 | 1016.0 |
| 20260509190219 | 43 | 112 | 0.9 | 1.7 | 0.09 | 0.44 | 0.44 | 90 | 1015.8 |
| 20260509185316 | 43 | 157 | 0.0 | 0.0 | 0.08 | 0.42 | 0.42 | 90 | 1015.9 |
| 20260509184317 | 43 | 112 | 0.0 | 0.0 | 0.09 | 0.41 | 0.41 | 91 | 1016.0 |
| 20260509183318 | 43 | 112 | 1.7 | 2.6 | 0.09 | 0.40 | 0.40 | 91 | 1016.0 |
| 20260509182416 | 43 | 112 | 0.9 | 1.7 | 0.09 | 0.39 | 0.39 | 90 | 1016.2 |
| 20260509181418 | 43 | 112 | 0.0 | 0.9 | 0.09 | 0.37 | 0.37 | 91 | 1016.4 |
| 20260509181316 | 43 | 112 | 0.0 | 0.9 | 0.09 | 0.37 | 0.37 | 90 | 1016.4 |
| 20260509180317 | 43 | 112 | 0.0 | 0.0 | 0.08 | 0.35 | 0.35 | 91 | 1016.5 |
| 20260509175318 | 43 | 112 | 0.0 | 0.9 | 0.09 | 0.34 | 0.34 | 90 | 1016.6 |
| 20260509174416 | 43 | 135 | 0.0 | 0.9 | 0.10 | 0.32 | 0.32 | 91 | 1016.6 |
| 20260509173417 | 43 | 157 | 0.0 | 0.0 | 0.10 | 0.31 | 0.31 | 91 | 1016.7 |
| 20260509171417 | 43 | 112 | 0.0 | 0.9 | 0.10 | 0.28 | 0.28 | 91 | 1016.8 |
| 20260509171318 | 43 | 112 | 0.9 | 2.6 | 0.10 | 0.28 | 0.28 | 91 | 1016.7 |
| 20260509170317 | 43 | 157 | 0.9 | 1.7 | 0.11 | 0.27 | 0.26 | 90 | 1016.9 |
| 20260509170218 | 43 | 124 | 0.0 | 2.6 | 0.10 | 0.26 | 0.26 | 91 | 1016.8 |
| 20260509165217 | 43 | 136 | 0.0 | 1.7 | 0.09 | 0.24 | 0.24 | 91 | 1016.8 |
| 20260509162316 | 44 | 202 | 0.0 | 0.0 | 0.08 | 0.19 | 0.19 | 90 | 1016.8 |
| 20260509160317 | 44 | 157 | 0.0 | 0.0 | 0.06 | 0.16 | 0.16 | 91 | 1017.1 |
| 20260509155318 | 44 | 247 | 0.0 | 0.0 | 0.06 | 0.15 | 0.15 | 91 | 1017.1 |
| 20260509154317 | 43 | 157 | 0.0 | 1.7 | 0.06 | 0.14 | 0.13 | 91 | 1017.3 |
| 20260509154218 | 43 | 149 | 0.0 | 0.9 | 0.05 | 0.13 | 0.13 | 91 | 1017.2 |
| 20260509153217 | 43 | 157 | 0.0 | 0.0 | 0.05 | 0.12 | 0.12 | 91 | 1017.4 |
| 20260509153118 | 43 | 154 | 1.7 | 4.3 | 0.05 | 0.12 | 0.12 | 90 | 1017.4 |
| 20260509153017 | 43 | 135 | 2.6 | 4.3 | 0.05 | 0.12 | 0.12 | 91 | 1017.5 |
| 20260509152017 | 43 | 157 | 0.0 | 1.7 | 0.04 | 0.11 | 0.11 | 91 | 1017.6 |
| 20260509151017 | 43 | 135 | 0.9 | 1.7 | 0.04 | 0.10 | 0.10 | 91 | 1017.5 |